TimeCDT,TemperatureF,Dew PointF,Humidity,Sea Level PressureIn,VisibilityMPH,Wind Direction,Wind SpeedMPH,Gust SpeedMPH,PrecipitationIn,Events,Conditions,WindDirDegrees,DateUTC
12:56 AM,83.8,70.9,65,29.97,10.0,SE,16.1,-,N/A,,Clear,130,2013-06-22 05:56:00
1:56 AM,81.9,72.0,72,29.97,10.0,SE,13.8,-,N/A,,Clear,140,2013-06-22 06:56:00
2:56 AM,81.0,72.0,74,29.96,9.0,SE,16.1,-,N/A,,Clear,140,2013-06-22 07:56:00
3:56 AM,79.9,72.9,79,29.95,9.0,SE,13.8,-,N/A,,Clear,140,2013-06-22 08:56:00
4:56 AM,79.0,72.9,81,29.95,8.0,SE,12.7,-,N/A,,Clear,140,2013-06-22 09:56:00
5:56 AM,79.0,72.9,81,29.94,8.0,SE,13.8,-,N/A,,Clear,130,2013-06-22 10:56:00
6:56 AM,79.0,72.0,79,29.95,9.0,SE,13.8,-,N/A,,Clear,140,2013-06-22 11:56:00
7:56 AM,79.9,72.0,77,29.97,9.0,SSE,12.7,-,N/A,,Clear,150,2013-06-22 12:56:00
8:56 AM,82.9,70.0,65,29.97,9.0,SSE,19.6,-,N/A,,Clear,150,2013-06-22 13:56:00
9:56 AM,84.9,68.9,59,29.99,9.0,SSE,17.3,-,N/A,,Clear,150,2013-06-22 14:56:00
10:56 AM,88.9,65.8,46,29.98,8.0,SSE,18.4,-,N/A,,Clear,150,2013-06-22 15:56:00
11:56 AM,92.8,63.0,37,29.98,9.0,SE,17.3,26.5,N/A,,Clear,130,2013-06-22 16:56:00
12:56 PM,95.9,59.9,30,29.97,9.0,SSE,21.9,-,N/A,,Clear,160,2013-06-22 17:56:00
1:56 PM,97.0,59.0,28,29.94,9.0,SSE,21.9,26.5,N/A,,Clear,150,2013-06-22 18:56:00
2:56 PM,99.0,55.9,24,29.91,9.0,SSE,18.4,29.9,N/A,,Clear,150,2013-06-22 19:56:00
3:56 PM,99.9,57.9,25,29.89,10.0,SSE,18.4,-,N/A,,Clear,150,2013-06-22 20:56:00
4:56 PM,99.9,59.0,26,29.86,8.0,SSE,21.9,27.6,N/A,,Clear,150,2013-06-22 21:56:00
5:56 PM,99.9,59.0,26,29.84,10.0,SE,17.3,24.2,N/A,,Clear,140,2013-06-22 22:56:00
6:56 PM,97.9,59.9,28,29.83,10.0,SE,16.1,-,N/A,,Clear,130,2013-06-22 23:56:00
7:56 PM,95.9,59.9,30,29.84,10.0,SE,21.9,26.5,N/A,,Clear,130,2013-06-23 00:56:00
8:56 PM,92.8,55.9,29,29.86,10.0,SE,13.8,-,N/A,,Clear,140,2013-06-23 01:56:00
9:56 PM,90.0,63.0,40,29.88,10.0,SE,20.7,-,N/A,,Clear,140,2013-06-23 02:56:00
10:56 PM,88.0,63.9,44,29.91,-9999.0,SE,17.3,24.2,N/A,,Unknown,140,2013-06-23 03:56:00
11:56 PM,84.9,64.9,51,29.92,10.0,SE,17.3,-,N/A,,Clear,140,2013-06-23 04:56:00